When you browse on this site, cookies collect data to enhance your experience and personalize the content and advertising you see.
Visit our Privacy Policy to learn more. By continuing to use the site, you agree to this use of cookies and data.
  • In Romania
  • List of Countries
  • For 7 days
  • Water Temperature
  • Weather Map
  • Weather Widgets
  • user-avatar
    Login

    Hourly Weather Prutz

    Today, 22 August, Thursday

    Time Temperature Precipitation Wind Pressure Humidity
    00:00 +11°C° 0 mm 1 mps 639 mmHg 93%
    01:00 +12°C° 0 mm 1 mps 639 mmHg 91%
    02:00 +11°C° 0.2 mm 1 mps 639 mmHg 90%
    03:00 +11°C° 0.2 mm 1 mps 638 mmHg 90%
    04:00 +11°C° 0.2 mm 1 mps 638 mmHg 90%
    05:00 +12°C° 0.1 mm 1 mps 639 mmHg 88%
    06:00 +13°C° 0.1 mm 1 mps 639 mmHg 87%
    07:00 +14°C° 0.1 mm 1 mps 640 mmHg 85%
    08:00 +16°C° 0.1 mm 1 mps 640 mmHg 79%
    09:00 +18°C° 0.1 mm 1 mps 641 mmHg 73%
    10:00 +20°C° 0.1 mm 1 mps 641 mmHg 66%
    11:00 +20°C° 0.8 mm 1 mps 641 mmHg 66%
    12:00 +21°C° 0.8 mm 1 mps 641 mmHg 65%
    13:00 +21°C° 0.8 mm 1 mps 641 mmHg 64%
    14:00 +21°C° 1.1 mm 1 mps 641 mmHg 67%
    15:00 +19°C° 1.1 mm 2 mps 641 mmHg 69%
    16:00 +19°C° 1.1 mm 2 mps 640 mmHg 71%
    17:00 +19°C° 0.6 mm 1 mps 640 mmHg 77%
    18:00 +16°C° 0.6 mm 1 mps 640 mmHg 83%
    19:00 +15°C° 0.6 mm 1 mps 640 mmHg 88%
    20:00 +14°C° 0.1 mm 1 mps 640 mmHg 89%
    21:00 +13°C° 0.1 mm 1 mps 639 mmHg 89%
    22:00 +12°C° 0.1 mm 1 mps 639 mmHg 89%
    23:00 +12°C° 0 mm 1 mps 639 mmHg 89%

    Tomorrow, 23 August, Friday

    Time Temperature Precipitation Wind Pressure Humidity
    00:00 +12°C° 0 mm 1 mps 639 mmHg 88%
    01:00 +10°C° 0 mm 0 mps 639 mmHg 88%
    02:00 +11°C° 0 mm 1 mps 639 mmHg 88%
    03:00 +11°C° 0 mm 1 mps 638 mmHg 87%
    04:00 +11°C° 0 mm 1 mps 638 mmHg 86%
    05:00 +12°C° 0 mm 1 mps 639 mmHg 84%
    06:00 +14°C° 0 mm 1 mps 639 mmHg 81%
    07:00 +15°C° 0 mm 1 mps 640 mmHg 78%
    08:00 +18°C° 0 mm 1 mps 640 mmHg 71%
    09:00 +20°C° 0 mm 1 mps 641 mmHg 64%
    10:00 +21°C° 0 mm 1 mps 642 mmHg 58%
    11:00 +22°C° 0.4 mm 1 mps 642 mmHg 56%
    12:00 +22°C° 0.4 mm 1 mps 641 mmHg 55%
    13:00 +23°C° 0.4 mm 1 mps 641 mmHg 54%
    14:00 +22°C° 1.1 mm 1 mps 641 mmHg 60%
    15:00 +21°C° 1.1 mm 1 mps 641 mmHg 66%
    16:00 +21°C° 1.1 mm 1 mps 640 mmHg 72%
    17:00 +19°C° 1 mm 1 mps 640 mmHg 77%
    18:00 +18°C° 1 mm 1 mps 639 mmHg 82%
    19:00 +15°C° 1 mm 0 mps 639 mmHg 88%
    20:00 +15°C° 0.3 mm 1 mps 639 mmHg 88%
    21:00 +15°C° 0.3 mm 1 mps 639 mmHg 88%
    22:00 +14°C° 0.3 mm 1 mps 639 mmHg 88%
    23:00 +14°C° 0 mm 1 mps 638 mmHg 88%

    Day after tomorrow, 24 August, Saturday

    Time Temperature Precipitation Wind Pressure Humidity
    00:00 +13°C° 0 mm 1 mps 638 mmHg 87%
    01:00 +12°C° 0 mm 1 mps 638 mmHg 87%
    02:00 +12°C° 0 mm 1 mps 637 mmHg 87%
    03:00 +12°C° 0 mm 1 mps 637 mmHg 86%
    04:00 +12°C° 0 mm 1 mps 637 mmHg 85%
    05:00 +13°C° 0 mm 1 mps 638 mmHg 83%
    06:00 +14°C° 0 mm 1 mps 638 mmHg 81%
    07:00 +15°C° 0 mm 1 mps 638 mmHg 79%
    08:00 +18°C° 0 mm 1 mps 639 mmHg 71%
    09:00 +20°C° 0 mm 1 mps 640 mmHg 63%
    10:00 +22°C° 0 mm 1 mps 640 mmHg 55%
    11:00 +23°C° 0.5 mm 1 mps 640 mmHg 55%
    12:00 +23°C° 0.5 mm 1 mps 640 mmHg 54%
    13:00 +23°C° 0.5 mm 1 mps 640 mmHg 54%
    14:00 +23°C° 1.3 mm 1 mps 640 mmHg 60%
    15:00 +22°C° 1.3 mm 1 mps 639 mmHg 65%
    16:00 +21°C° 1.3 mm 1 mps 639 mmHg 71%
    17:00 +20°C° 0.9 mm 1 mps 638 mmHg 76%
    18:00 +16°C° 0.9 mm 0 mps 638 mmHg 81%
    19:00 +15°C° 0.9 mm 0 mps 637 mmHg 86%
    20:00 +14°C° 0.2 mm 0 mps 637 mmHg 86%
    21:00 +13°C° 0.2 mm 0 mps 637 mmHg 87%
    22:00 +14°C° 0.2 mm 1 mps 637 mmHg 87%
    23:00 +13°C° 0 mm 1 mps 637 mmHg 87%

    25 August, Sunday

    Time Temperature Precipitation Wind Pressure Humidity
    00:00 +13°C° 0 mm 1 mps 637 mmHg 87%
    01:00 +13°C° 0 mm 1 mps 636 mmHg 87%
    02:00 +12°C° 0 mm 1 mps 636 mmHg 87%
    03:00 +12°C° 0 mm 1 mps 636 mmHg 87%
    04:00 +12°C° 0 mm 1 mps 636 mmHg 87%
    05:00 +13°C° 0 mm 1 mps 637 mmHg 85%
    06:00 +14°C° 0 mm 0 mps 637 mmHg 82%
    07:00 +15°C° 0 mm 0 mps 638 mmHg 80%
    08:00 +19°C° 0 mm 1 mps 638 mmHg 73%
    09:00 +21°C° 0 mm 1 mps 639 mmHg 66%
    10:00 +22°C° 0 mm 1 mps 639 mmHg 59%
    11:00 +23°C° 0.6 mm 1 mps 639 mmHg 57%
    12:00 +23°C° 0.6 mm 1 mps 639 mmHg 55%
    13:00 +24°C° 0.6 mm 2 mps 639 mmHg 54%
    14:00 +23°C° 1.1 mm 2 mps 639 mmHg 59%
    15:00 +21°C° 1.1 mm 2 mps 639 mmHg 65%
    16:00 +20°C° 1.1 mm 2 mps 638 mmHg 70%
    17:00 +20°C° 0.7 mm 1 mps 638 mmHg 77%
    18:00 +18°C° 0.7 mm 1 mps 637 mmHg 84%
    19:00 +16°C° 0.7 mm 1 mps 637 mmHg 91%
    20:00 +15°C° 0 mm 1 mps 637 mmHg 92%
    21:00 +13°C° 0 mm 0 mps 637 mmHg 92%
    22:00 +12°C° 0 mm 0 mps 637 mmHg 93%
    23:00 +11°C° 0 mm 0 mps 637 mmHg 93%

    26 August, Monday

    Time Temperature Precipitation Wind Pressure Humidity
    00:00 +11°C° 0 mm 0 mps 637 mmHg 92%
    01:00 +11°C° 0 mm 0 mps 637 mmHg 92%
    02:00 +11°C° 0 mm 0 mps 636 mmHg 92%
    03:00 +11°C° 0 mm 0 mps 636 mmHg 91%
    04:00 +10°C° 0 mm 0 mps 636 mmHg 91%
    05:00 +12°C° 0 mm 0 mps 637 mmHg 88%
    06:00 +13°C° 0 mm 0 mps 637 mmHg 85%
    07:00 +15°C° 0 mm 0 mps 638 mmHg 83%
    08:00 +16°C° 0 mm 0 mps 639 mmHg 75%
    09:00 +20°C° 0 mm 1 mps 639 mmHg 67%
    10:00 +22°C° 0 mm 1 mps 640 mmHg 59%
    11:00 +23°C° 0.3 mm 1 mps 640 mmHg 56%
    12:00 +23°C° 0.3 mm 1 mps 640 mmHg 53%
    13:00 +24°C° 0.3 mm 1 mps 640 mmHg 50%
    14:00 +24°C° 1 mm 1 mps 640 mmHg 55%
    15:00 +23°C° 1 mm 1 mps 639 mmHg 60%
    16:00 +21°C° 1 mm 2 mps 639 mmHg 65%
    17:00 +21°C° 1 mm 1 mps 638 mmHg 73%
    18:00 +19°C° 1 mm 1 mps 638 mmHg 81%
    19:00 +15°C° 1 mm 0 mps 637 mmHg 88%
    20:00 +15°C° 0.3 mm 0 mps 637 mmHg 88%
    21:00 +15°C° 0.3 mm 1 mps 637 mmHg 88%
    22:00 +14°C° 0.3 mm 1 mps 637 mmHg 87%
    23:00 +14°C° 0 mm 1 mps 637 mmHg 87%

    27 August, Tuesday

    Time Temperature Precipitation Wind Pressure Humidity
    00:00 +14°C° 0 mm 1 mps 637 mmHg 87%
    01:00 +13°C° 0 mm 1 mps 637 mmHg 87%
    02:00 +13°C° 0 mm 1 mps 636 mmHg 87%
    03:00 +13°C° 0 mm 1 mps 636 mmHg 86%
    04:00 +13°C° 0 mm 1 mps 636 mmHg 86%
    05:00 +14°C° 0 mm 2 mps 636 mmHg 85%
    06:00 +15°C° 0 mm 2 mps 637 mmHg 83%
    07:00 +16°C° 0 mm 2 mps 637 mmHg 81%
    08:00 +19°C° 0 mm 1 mps 638 mmHg 73%
    09:00 +21°C° 0 mm 1 mps 638 mmHg 64%
    10:00 +23°C° 0 mm 1 mps 639 mmHg 56%
    11:00 +24°C° 0.3 mm 1 mps 639 mmHg 53%
    12:00 +24°C° 0.3 mm 1 mps 639 mmHg 51%
    13:00 +25°C° 0.3 mm 1 mps 639 mmHg 49%
    14:00 +25°C° 0.8 mm 1 mps 638 mmHg 52%
    15:00 +24°C° 0.8 mm 1 mps 638 mmHg 56%
    16:00 +23°C° 0.8 mm 1 mps 637 mmHg 59%
    17:00 +21°C° 0.9 mm 1 mps 637 mmHg 68%
    18:00 +19°C° 0.9 mm 1 mps 636 mmHg 77%
    19:00 +16°C° 0.9 mm 1 mps 635 mmHg 86%
    20:00 +16°C° 0.5 mm 1 mps 635 mmHg 87%
    21:00 +15°C° 0.5 mm 2 mps 635 mmHg 88%
    22:00 +15°C° 0.5 mm 2 mps 635 mmHg 89%
    23:00 +14°C° 0 mm 2 mps 635 mmHg 89%
    Show more